User: anonymous   Login
Location: Bushey
(51.6333°N, 0.3667°W)
Time: 00:40:01
(UTC+00:00)
Language:

PSLV R/B - Orbit

View from above orbital plane
View from above orbital plane
View from above satellite
View from above satellite

Ground track
Ground track

The orbit data is extracted from the following two-line orbital elements,

1 36800U 10035F   21138.52306055 -.00000146  00000-0 -74822-5 0  9998
2 36800  98.1607 335.5559 0020821 294.6844  65.2208 14.94930512590684
Epoch (UTC): 18 May 2021 12:33:12
Eccentricity: 0.0020821
inclination: 98.1607°
perigee height: 568 km
apogee height: 597 km
right ascension of ascending node: 335.5559°
argument of perigee: 294.6844°
revolutions per day: 14.94930512
mean anomaly at epoch: 65.2208°
orbit number at epoch: 59068

The dashed part of the orbit path shows where the satellite is in the earth's shadow,  

DLR